Lapse_Rate
4.7 6.5 6.5 6.5 6.5 6.5 6.5 6.5 6.5 6.5 6.5 6.5 6.5 6.5 6.5 4.5 4.6 4.0 3.6 3.4 3.7 4.7 4.8 5.7 5.2 5.1 4.9 4.3 5.3 3.9 2.6 1.6 2.1 2.2 2.5 2.8 2.0 1.8 2.0 3.5 4.5 4.6 5.2 5.4
6.5 6.5 6.5 6.5 6.5 6.5 6.5 6.5 6.5 6.5 6.5 6.5 6.5 6.5 6.5 6.3 5.6 4.9 4.3 3.9 4.1 3.8 4.3 4.7 4.4 4.4 5.2 5.5 5.1 4.1 4.1 3.1 3.8 3.6 3.5 3.9 3.0 3.0 3.4 4.0 4.1 4.6 5.8 5.7
6.5 6.5 6.5 6.5 6.5 6.5 6.5 6.5 6.5 6.5 6.5 6.5 6.5 6.5 6.5 6.4 5.3 4.9 4.9 5.0 5.4 4.6 4.6 4.8 5.1 3.3 4.6 5.5 4.5 4.3 3.5 3.5 4.3 4.6 5.2 4.6 4.3 3.7 2.8 2.4 2.6 5.1 6.2 6.5
6.5 6.5 6.5 6.5 6.5 6.5 6.5 6.5 6.5 6.5 6.5 6.5 6.5 6.5 6.5 6.5 6.5 6.5 5.2 5.0 5.1 5.0 4.8 5.1 4.6 3.6 4.3 3.6 4.1 4.4 4.1 4.4 5.2 5.2 6.4 4.9 4.0 3.8 2.6 2.8 3.4 4.2 6.3 6.9
6.5 6.5 6.5 6.5 6.5 6.5 6.5 6.5 6.5 6.5 6.5 6.5 6.5 6.5 6.5 6.5 6.5 6.5 5.6 3.9 3.9 5.0 4.4 5.1 4.7 4.2 3.8 3.9 4.3 3.8 4.6 5.5 5.2 6.0 6.4 5.0 4.0 4.1 3.1 3.5 4.0 4.9 5.7 7.1
6.5 6.2 6.4 6.5 6.5 6.5 6.5 6.5 6.5 6.5 6.5 6.5 6.5 6.5 6.5 6.5 6.5 6.5 5.7 4.8 3.6 3.3 5.0 5.2 5.1 3.9 3.5 3.7 4.4 4.7 4.4 4.5 5.5 6.4 4.8 4.1 4.5 4.0 4.4 4.6 4.9 5.0 4.3 4.3
6.5 6.5 6.5 6.5 6.5 6.5 6.5 6.5 6.5 6.5 6.5 6.5 6.5 6.5 6.5 6.5 6.5 6.5 6.4 5.2 3.6 2.8 4.4 4.7 4.6 4.6 3.7 3.2 3.3 3.9 4.5 5.3 5.8 5.5 4.1 3.6 3.6 3.6 3.5 3.4 3.3 3.7 4.4 3.6
6.5 6.5 6.5 6.5 6.5 6.5 6.5 6.5 6.5 6.5 6.5 6.5 6.5 6.5 6.5 6.5 5.5 3.9 3.8 4.9 4.0 3.4 3.6 4.3 4.6 4.0 3.8 4.2 4.2 5.0 6.1 6.6 4.6 3.9 3.7 3.4 3.4 3.1 2.9 3.0 2.9 3.1 3.3 3.6
6.5 6.5 6.5 6.5 6.5 6.5 6.5 6.5 6.5 6.5 6.5 6.5 6.5 6.5 6.5 6.5 6.5 6.0 4.2 5.4 3.8 3.4 3.4 3.3 3.1 3.8 4.3 5.4 4.6 5.0 5.2 4.8 4.1 3.7 2.8 2.8 2.4 2.5 2.7 3.3 3.6 3.8 4.2 5.1
6.5 6.5 6.5 6.5 6.4 6.2 6.5 6.5 6.5 6.5 6.5 6.5 6.5 6.5 6.5 6.5 6.5 6.5 6.2 4.5 3.8 3.9 3.9 3.9 3.9 3.6 4.0 4.2 4.2 4.4 4.0 4.1 3.7 3.1 2.8 3.2 3.0 3.4 3.7 4.4 4.8 5.6 5.5 6.4
6.5 6.5 6.5 6.5 6.5 6.5 6.5 6.5 6.5 6.5 6.5 6.5 6.5 6.5 6.5 6.5 6.5 6.5 5.7 4.3 3.8 3.7 3.7 3.6 3.4 3.7 3.4 3.2 3.5 4.4 4.5 3.9 3.0 3.4 3.4 3.0 3.3 4.0 4.9 6.0 6.0 6.6 7.1 6.8
6.5 6.5 6.5 6.5 6.5 6.5 6.5 6.5 6.5 6.5 6.5 6.5 6.5 6.5 6.5 6.5 6.4 4.9 4.9 4.8 3.5 4.3 3.8 3.8 3.7 3.8 4.1 4.0 3.9 4.0 4.0 3.9 4.6 4.2 3.5 3.2 4.0 5.7 6.5 6.9 7.2 7.9 6.6 6.2
6.5 6.5 6.5 6.5 6.5 6.5 6.5 6.5 6.5 6.5 6.5 6.5 6.5 6.5 6.5 6.2 6.4 5.1 4.5 4.2 3.8 3.5 3.6 3.8 3.8 4.2 4.2 4.2 4.5 4.1 3.8 3.7 4.7 4.4 4.2 4.8 5.5 6.4 6.7 7.1 8.1 6.4 6.1 5.6
5.2 6.5 6.5 6.5 6.5 6.5 6.5 6.5 6.5 6.5 6.5 6.5 6.5 6.5 6.5 6.5 6.5 5.8 4.9 5.4 3.0 3.7 4.6 4.2 4.4 4.6 5.2 5.2 5.1 4.5 4.0 4.4 3.8 3.7 3.8 4.8 5.5 6.8 7.1 7.7 7.9 6.8 5.8 5.9
6.5 6.5 6.5 6.5 6.5 6.5 6.5 6.5 6.5 6.5 6.5 6.5 6.5 6.5 6.5 6.5 6.5 5.3 4.8 5.3 5.9 5.3 5.2 3.8 3.6 2.6 3.1 3.1 3.5 4.2 4.6 4.1 4.4 4.5 4.9 5.0 5.7 5.8 7.1 7.5 7.4 6.4 5.9 6.8
6.5 6.5 6.5 6.5 6.5 6.5 6.5 6.5 6.5 6.5 6.5 6.5 6.5 6.5 6.5 5.3 4.7 4.6 4.7 4.7 4.6 4.3 4.1 4.5 2.7 2.9 3.5 3.3 4.0 4.2 4.8 4.3 3.9 4.1 4.6 5.3 5.7 7.0 7.7 7.3 7.4 7.0 6.6 6.5
6.5 6.5 6.5 6.5 6.5 6.5 6.5 6.5 6.5 6.5 6.5 6.5 6.5 6.5 6.5 6.5 6.1 5.1 4.5 4.5 5.0 4.8 4.5 5.0 5.7 4.2 3.9 3.6 3.4 3.2 3.3 3.7 4.2 4.9 5.8 6.2 6.4 7.2 7.3 8.3 7.7 6.8 6.9 6.5
6.5 6.5 6.5 6.5 6.5 6.5 6.5 6.5 6.5 6.5 6.5 6.5 6.5 6.5 6.2 5.8 5.3 4.1 3.9 3.9 4.2 4.6 4.6 4.4 4.0 4.5 2.4 1.7 2.2 2.5 3.4 4.3 5.0 5.8 6.1 6.3 6.9 7.8 7.0 6.9 6.9 7.7 6.8 6.9
6.6 6.5 6.5 6.5 6.5 6.5 6.5 6.5 6.5 6.5 6.5 6.5 6.5 6.5 5.5 4.5 4.6 4.8 5.0 4.8 5.1 5.4 5.0 4.3 3.1 1.9 1.9 2.4 2.9 2.9 4.6 5.7 6.0 6.2 6.6 7.7 7.6 7.8 7.6 7.4 7.3 6.8 7.8 6.6
6.5 6.5 6.5 6.5 6.5 6.5 6.5 6.5 5.9 6.4 6.5 6.3 5.6 6.2 5.7 4.5 6.5 6.5 4.9 4.8 4.3 2.3 1.5 1.2 0.9 0.7 2.0 2.4 2.1 2.1 3.5 4.1 5.0 6.5 8.0 8.3 8.1 7.6 6.9 5.6 6.0 7.2 6.7 7.0
6.5 6.5 6.5 6.5 6.5 6.5 6.5 6.2 6.4 6.5 6.5 5.7 5.0 5.0 4.9 6.3 4.8 5.0 5.9 5.3 4.3 2.1 0.9 0.5 0.4 1.2 2.8 3.1 3.0 3.6 4.9 4.8 6.7 7.5 7.8 7.5 7.1 6.4 5.2 6.4 7.0 6.6 6.2 5.6
6.5 6.5 6.5 6.5 6.5 6.5 5.6 6.4 6.5 5.9 5.1 4.7 5.2 5.3 5.0 4.8 4.8 5.2 5.7 3.5 2.8 2.1 1.8 1.7 1.1 2.6 4.5 4.9 4.2 5.1 5.7 7.5 7.1 6.5 5.6 5.9 6.1 6.2 7.5 6.8 6.4 6.4 6.1 5.3
6.5 6.5 6.5 6.5 6.5 5.6 4.9 4.8 4.4 4.0 4.7 5.3 4.7 4.5 4.7 4.8 5.5 4.5 3.1 3.1 2.8 2.3 2.0 2.9 2.8 4.5 5.3 5.6 5.8 5.8 6.0 6.2 6.1 6.2 5.5 5.3 5.4 5.7 6.4 6.3 5.8 5.5 5.3 4.4
6.5 5.9 6.5 6.5 6.5 6.3 6.1 5.6 5.4 4.8 5.1 4.2 3.8 4.6 4.3 2.9 2.9 3.3 3.0 3.4 3.5 3.8 4.4 5.0 4.6 4.3 4.7 5.7 6.3 6.2 6.9 6.3 5.2 5.2 5.0 4.5 5.0 5.5 5.2 5.2 5.0 4.9 3.6 3.1
6.0 6.1 6.5 6.5 6.4 6.4 6.2 5.6 5.5 5.4 5.1 3.5 3.9 3.8 3.4 1.6 3.0 2.5 3.3 4.0 4.6 4.7 5.0 5.4 5.5 5.9 6.5 6.8 6.9 6.6 5.8 6.0 5.7 5.1 4.9 5.0 4.7 4.3 4.2 4.6 4.7 4.4 4.3 4.2
5.7 6.5 6.5 6.5 6.1 6.2 6.3 5.8 5.1 4.6 5.5 4.7 3.1 3.0 3.6 2.9 3.0 3.4 4.1 5.2 5.1 5.0 5.7 5.4 5.7 6.5 7.0 6.7 6.2 6.1 5.9 5.8 5.4 5.1 4.5 2.7 2.6 2.6 3.6 4.0 4.8 5.2 5.3 5.5
Wind_Speed
6 3 0 4 3 4 1 6 11 5 8 7 11 6 10 10 7 9 9 9 9 13 10 13 11 16 16 13 14 16 15 8 7 4 4 4 4 4 4 11 15 13 11 8
6 7 7 9 7 5 7 14 7 8 4 6 9 8 10 11 8 12 12 11 11 8 9 8 9 10 18 17 14 15 16 13 9 7 4 4 4 3 5 11 9 14 11 9
4 7 10 6 6 12 14 5 14 6 3 2 5 4 5 7 6 7 11 14 16 16 12 9 7 12 15 17 15 14 14 13 10 8 4 4 4 4 2 3 4 7 11 13
5 4 8 9 9 11 8 4 5 9 2 3 3 2 2 5 10 8 10 13 15 14 14 13 9 10 13 9 13 15 14 12 10 8 7 10 5 5 4 4 4 6 13 10
7 2 5 4 11 3 7 6 5 5 4 4 2 4 7 3 3 4 7 9 12 15 16 15 11 10 14 12 12 11 11 12 8 9 11 8 5 3 4 4 7 5 8 11
5 4 6 5 8 4 8 3 4 6 3 2 6 5 4 9 17 6 11 6 9 9 17 15 10 13 11 11 11 11 10 6 7 8 9 9 9 8 8 7 6 3 3 7
4 8 4 3 6 10 4 4 3 5 5 5 9 3 13 13 8 13 18 14 7 9 13 14 15 12 13 11 10 8 8 7 8 8 8 8 8 8 9 7 5 6 4 3
6 7 2 3 10 3 4 5 4 5 2 4 10 4 4 13 7 10 10 5 5 9 9 15 15 12 12 9 8 8 11 11 8 8 8 7 8 5 5 6 5 4 4 4
3 1 3 9 6 2 1 3 5 6 4 4 5 4 5 8 5 6 5 5 8 8 8 9 9 10 11 10 8 9 10 9 9 8 7 7 7 8 6 6 5 4 4 4
4 3 3 12 10 9 4 3 4 3 4 4 3 3 4 4 6 9 10 9 8 8 8 8 9 8 7 8 7 7 7 9 8 9 7 7 7 7 6 5 6 4 6 4
6 4 5 5 6 10 1 2 3 3 4 4 0 4 1 6 8 9 9 12 12 10 9 9 8 11 10 9 8 7 6 8 8 10 7 8 6 5 6 4 5 5 5 5
8 5 4 18 17 9 5 5 2 4 4 2 5 5 2 5 7 8 8 11 11 13 12 11 11 12 12 11 10 9 7 9 10 9 9 8 7 5 5 4 5 6 6 6
3 2 3 3 3 4 3 4 4 3 3 4 5 5 4 5 2 6 7 8 9 10 10 11 11 13 13 12 12 10 8 9 10 10 10 8 6 6 5 3 4 5 5 5
4 1 6 6 6 2 5 5 5 5 4 3 5 5 12 7 7 6 6 5 8 10 14 13 13 14 16 13 12 11 9 12 10 11 9 7 6 6 4 2 4 4 3 4
4 4 1 5 5 3 4 5 6 4 6 7 8 7 13 3 6 6 4 2 2 5 4 7 11 8 8 10 8 7 7 9 13 10 9 7 6 6 5 5 5 4 4 2
1 2 3 2 6 7 3 5 8 6 5 1 4 6 4 4 6 7 7 7 7 8 8 8 8 8 10 9 10 9 10 12 12 11 10 7 7 5 4 4 3 2 2 3
6 4 3 2 4 6 6 6 6 6 4 3 4 4 8 10 9 6 6 8 6 6 7 7 5 7 7 10 9 9 10 11 9 8 7 7 8 6 5 4 2 3 4 5
6 5 3 3 3 1 9 1 5 6 6 8 9 7 7 6 9 12 9 9 9 9 9 8 6 4 6 8 12 13 12 10 10 10 9 10 8 7 5 5 6 6 5 5
4 5 2 4 4 5 6 2 2 4 4 6 8 8 7 7 6 8 9 7 6 7 6 6 10 12 13 13 11 13 12 10 11 11 12 11 7 8 7 8 5 6 9 6
7 5 5 2 4 6 6 3 4 3 2 4 8 8 8 8 5 3 5 7 12 18 16 16 16 16 16 14 16 17 14 13 13 13 10 9 8 4 5 5 9 8 3 4
3 3 5 2 2 7 5 5 0 6 5 4 7 6 7 4 4 4 5 12 18 16 17 17 18 16 14 13 14 15 14 14 10 9 5 3 4 5 8 7 3 3 4 5
6 6 3 4 3 5 6 3 6 6 3 7 6 5 6 6 9 9 14 16 17 17 17 16 15 13 11 11 12 12 11 6 5 5 4 4 3 4 5 6 5 5 5 6
2 6 6 7 6 6 4 9 6 9 7 5 7 8 8 8 10 16 15 16 15 14 13 11 12 11 9 9 9 9 6 4 4 5 5 4 6 6 5 5 5 4 5 4
2 4 3 5 3 5 12 10 9 11 13 14 12 8 12 15 14 14 13 13 12 11 11 10 9 7 5 5 5 6 4 4 3 3 5 5 5 5 5 4 4 4 3 3
5 4 5 3 10 14 10 7 11 12 16 16 16 14 13 16 13 12 11 10 9 7 6 6 6 6 6 5 4 4 4 3 4 5 5 5 4 5 5 5 4 4 5 4
1 4 4 4 4 10 6 10 13 16 14 12 15 14 12 12 11 9 8 7 7 7 6 6 5 4 4 5 4 5 6 5 4 4 4 4 4 4 4 5 6 7 7 8
Wind_Direction
334 359 92 294 356 124 43 285 266 266 237 137 179 182 209 221 166 159 163 149 158 156 167 163 156 145 147 146 150 143 140 126 135 126 146 176 174 164 177 165 154 146 148 124
26 4 281 21 336 308 300 267 277 307 133 125 203 208 185 199 196 172 164 161 163 134 137 137 139 136 154 160 146 146 152 162 172 172 189 160 151 180 168 154 150 142 144 128
105 274 276 250 269 238 220 282 217 234 296 332 145 296 175 214 179 172 174 167 166 156 158 155 155 141 154 163 150 154 156 165 181 192 157 125 133 106 110 139 115 151 140 124
170 282 322 330 298 254 275 198 304 299 307 213 94 269 97 228 198 197 179 176 173 172 161 163 165 141 160 151 154 157 160 169 191 195 157 155 162 167 180 154 141 150 136 138
221 171 316 315 272 186 243 240 234 278 285 103 138 99 273 193 305 240 224 192 176 177 164 168 170 156 149 141 156 155 176 185 183 187 163 164 159 161 146 131 139 154 165 170
170 150 175 242 264 275 273 298 329 26 44 27 240 138 262 212 217 158 250 267 182 174 168 164 153 131 139 144 153 170 173 185 182 164 166 158 148 141 130 141 158 153 108 97
212 190 246 217 309 293 330 17 1 5 12 245 315 142 231 226 221 193 215 228 190 134 136 143 144 151 160 171 176 166 168 184 160 136 125 124 140 142 144 145 134 132 134 117
184 77 337 337 226 251 265 134 154 172 209 251 323 240 234 222 181 212 212 152 159 137 146 156 166 164 161 163 181 179 175 163 144 133 130 123 125 119 113 126 126 116 123 125
130 49 297 300 347 273 150 332 170 108 6 60 244 331 9 88 56 149 149 198 156 141 144 142 135 146 151 150 161 153 149 150 144 137 122 118 110 110 116 105 107 107 106 106
186 109 354 292 347 284 167 272 31 359 144 238 314 22 168 128 133 168 167 164 159 154 149 147 142 142 138 142 146 138 152 153 146 127 129 126 122 116 104 110 108 103 102 75
138 101 301 44 248 238 187 248 238 148 138 162 72 285 166 150 156 164 187 174 170 167 167 167 159 159 157 153 155 163 153 141 131 133 127 120 117 108 121 111 111 112 129 124
201 134 144 224 244 208 176 193 193 123 262 185 142 272 212 138 173 169 172 191 177 174 172 170 167 165 167 167 166 166 151 141 145 136 128 123 128 131 143 161 147 162 160 143
153 192 140 333 294 299 225 213 221 147 85 179 127 260 234 173 158 176 183 160 176 177 175 176 173 172 170 168 168 162 146 150 148 136 131 132 140 149 132 74 283 179 157 137
109 129 148 188 213 154 330 261 255 151 112 200 208 272 298 250 200 217 178 146 174 181 186 188 185 183 181 173 158 159 159 152 137 133 134 137 121 129 81 169 85 186 127 115
109 164 300 295 309 252 230 299 315 246 203 150 233 226 264 126 114 61 125 125 150 136 207 216 189 150 150 153 154 155 152 139 139 129 120 125 106 81 51 18 206 122 116 203
178 199 120 309 335 14 1 302 306 301 302 228 228 242 218 184 78 70 73 76 90 61 39 70 118 146 159 156 162 166 150 133 127 127 120 119 93 75 135 144 90 220 261 290
141 129 88 245 351 7 345 245 238 247 280 259 287 330 65 51 53 43 41 55 64 73 67 49 98 161 171 168 152 126 126 125 113 115 109 101 106 94 61 65 349 6 323 269
144 116 98 181 39 42 243 243 130 108 64 72 72 60 77 86 57 35 40 81 59 49 33 23 32 49 80 103 106 116 114 100 95 87 73 62 40 59 61 34 5 315 275 281
100 116 96 135 186 288 325 26 129 122 35 52 70 41 36 23 76 24 24 49 61 43 40 40 55 73 72 79 91 92 91 93 82 77 71 66 66 48 28 6 288 288 286 257
56 83 116 130 146 199 237 156 33 70 59 47 70 50 40 45 59 289 20 37 55 66 58 65 60 60 67 64 77 78 73 69 67 60 50 41 31 349 276 274 262 261 245 265
43 11 142 132 184 286 231 145 198 95 219 81 78 76 57 70 173 211 96 65 73 72 72 72 66 66 68 67 76 80 84 83 76 57 39 270 251 243 243 257 261 268 273 286
159 141 187 100 91 282 179 100 130 190 100 81 62 59 67 54 35 51 71 75 80 80 74 72 76 72 71 75 76 72 69 71 109 185 213 235 289 322 293 276 279 279 280 279
129 173 174 163 208 225 114 110 90 94 98 57 67 49 73 60 53 82 83 80 77 77 80 78 83 82 71 77 106 119 160 142 66 22 13 337 279 263 267 297 298 299 285 267
84 143 111 85 351 88 81 73 75 75 78 73 58 52 73 84 87 87 82 80 79 78 82 93 103 111 96 65 56 60 52 61 60 320 287 278 279 299 303 295 290 286 277 268
198 116 147 139 116 84 51 55 90 73 89 80 67 67 78 91 82 89 88 89 101 102 76 55 56 55 51 49 20 25 35 2 297 282 283 300 301 292 285 272 265 263 252 225
150 171 138 200 79 108 84 77 84 80 84 85 88 77 71 89 102 102 91 75 63 64 64 60 52 30 3 33 355 319 297 277 268 272 278 261 270 269 269 273 280 263 252 270